This is the latest recevied weather packets stored in our database for station/object N5COP-13. If no packets are shown the sender has not sent any weather packets the latest 10 day(s).
| Time | Temp. | Humidity | Pressure | Rain* | Wind** | Luminosity | Snow |
|---|---|---|---|---|---|---|---|
| 1778072551 | 5.56° C | 81% | 1016.2 hPa | 0 mm | - | 41 W/m² | - |
| 1778072249 | 5.56° C | 82% | 1016.4 hPa | 0 mm | - | 36 W/m² | - |
| 1778071947 | 5.56° C | 83% | 1016.3 hPa | 0 mm | - | 30 W/m² | - |
| 1778071645 | 5° C | 83% | 1016.5 hPa | 0 mm | - | 21 W/m² | - |
| 1778071343 | 5° C | 84% | 1016.6 hPa | 0 mm | - | 21 W/m² | - |
| 1778071039 | 5° C | 84% | 1016.5 hPa | 0 mm | - | 17 W/m² | - |
| 1778070739 | 5° C | 84% | 1016.4 hPa | 0 mm | - | 13 W/m² | - |
| 1778070435 | 5° C | 84% | 1016.1 hPa | 0 mm | - | 10 W/m² | - |
| 1778070132 | 5° C | 84% | 1016.3 hPa | 0 mm | - | 8 W/m² | - |
| 1778069830 | 5° C | 85% | 1016 hPa | 0 mm | - | 5 W/m² | - |
| 1778069526 | 5° C | 84% | 1016.2 hPa | 0 mm | - | 5 W/m² | - |
| 1778069225 | 5° C | 84% | 1016 hPa | 0 mm | - | 3 W/m² | - |
| 1778068922 | 5° C | 84% | 1015.9 hPa | 0 mm | - | 3 W/m² | - |
| 1778068620 | 5.56° C | 84% | 1016 hPa | 0 mm | - | 2 W/m² | - |
| 1778068317 | 5.56° C | 84% | 1015.6 hPa | 0 mm | - | 1 W/m² | - |
| 1778068014 | 5.56° C | 84% | 1015.6 hPa | 0 mm | - | 0 W/m² | - |
| 1778067712 | 5.56° C | 84% | 1015.5 hPa | 0 mm | - | 0 W/m² | - |
| 1778067411 | 5.56° C | 83% | 1015.4 hPa | 0 mm | - | 0 W/m² | - |
| 1778067108 | 6.11° C | 83% | 1015.3 hPa | 0 mm | - | 0 W/m² | - |
| 1778066803 | 6.11° C | 83% | 1015.4 hPa | 0 mm | - | 0 W/m² | - |
| 1778066502 | 6.11° C | 83% | 1015.1 hPa | 0 mm | - | 0 W/m² | - |
| 1778066199 | 6.11° C | 83% | 1015.2 hPa | 0 mm | - | 0 W/m² | - |
| 1778065896 | 6.11° C | 82% | 1015.1 hPa | 0 mm | - | 0 W/m² | - |
| 1778065594 | 6.11° C | 82% | 1015 hPa | 0 mm | - | 0 W/m² | - |
| 1778065291 | 6.11° C | 81% | 1015.3 hPa | 0 mm | - | 0 W/m² | - |
* Rain latest hour (hover to see other rain measurements)
** Current wind speed in m/s (hover to see current wind gust speed)